• In United Kingdom
  • List of Countries
  • For 7 days
  • Water Temperature
  • Satellite Maps
  • Weather Map
  • Weather Widgets
  • user-avatar
    Login

    Hourly Weather Djelfa

    Today, 25 June, Monday

    Time Temperature Precipitation Wind Pressure Humidity
    00:00 +27°C° 0 mm 2 mps 666 mmHg 28%
    01:00 +27°C° 0 mm 2 mps 666 mmHg 29%
    02:00 +26°C° 0 mm 1 mps 666 mmHg 30%
    03:00 +24°C° 0 mm 0 mps 665 mmHg 31%
    04:00 +26°C° 0 mm 1 mps 666 mmHg 29%
    05:00 +27°C° 0 mm 1 mps 666 mmHg 28%
    06:00 +27°C° 0 mm 1 mps 666 mmHg 25%
    07:00 +29°C° 0 mm 2 mps 666 mmHg 22%
    08:00 +30°C° 0 mm 2 mps 667 mmHg 19%
    09:00 +31°C° 0 mm 3 mps 667 mmHg 16%
    10:00 +34°C° 0 mm 3 mps 667 mmHg 15%
    11:00 +35°C° 0 mm 4 mps 668 mmHg 14%
    12:00 +36°C° 0 mm 4 mps 668 mmHg 13%
    13:00 +36°C° 0 mm 5 mps 667 mmHg 12%
    14:00 +37°C° 0 mm 5 mps 667 mmHg 11%
    15:00 +38°C° 0 mm 6 mps 667 mmHg 11%
    16:00 +38°C° 0 mm 7 mps 667 mmHg 12%
    17:00 +36°C° 0 mm 7 mps 667 mmHg 13%
    18:00 +35°C° 0 mm 7 mps 666 mmHg 14%
    19:00 +34°C° 0 mm 7 mps 667 mmHg 17%
    20:00 +32°C° 0 mm 7 mps 667 mmHg 19%
    21:00 +30°C° 0 mm 6 mps 667 mmHg 21%
    22:00 +29°C° 0 mm 5 mps 667 mmHg 22%
    23:00 +28°C° 0 mm 3 mps 667 mmHg 24%

    Tomorrow, 26 June, Tuesday

    Time Temperature Precipitation Wind Pressure Humidity
    00:00 +27°C° 0 mm 2 mps 667 mmHg 25%
    01:00 +26°C° 0 mm 1 mps 667 mmHg 27%
    02:00 +25°C° 0 mm 1 mps 666 mmHg 28%
    03:00 +24°C° 0 mm 1 mps 666 mmHg 30%
    04:00 +24°C° 0 mm 1 mps 666 mmHg 29%
    05:00 +25°C° 0 mm 1 mps 667 mmHg 28%
    06:00 +25°C° 0 mm 1 mps 667 mmHg 26%
    07:00 +26°C° 0 mm 2 mps 667 mmHg 24%
    08:00 +28°C° 0 mm 2 mps 668 mmHg 22%
    09:00 +29°C° 0 mm 3 mps 668 mmHg 19%
    10:00 +30°C° 0 mm 4 mps 668 mmHg 18%
    11:00 +32°C° 0 mm 4 mps 668 mmHg 16%
    12:00 +33°C° 0 mm 5 mps 668 mmHg 15%
    13:00 +34°C° 0 mm 5 mps 668 mmHg 15%
    14:00 +34°C° 0 mm 5 mps 668 mmHg 14%
    15:00 +35°C° 0 mm 6 mps 668 mmHg 14%
    16:00 +34°C° 0 mm 6 mps 668 mmHg 14%
    17:00 +34°C° 0 mm 6 mps 667 mmHg 15%
    18:00 +33°C° 0 mm 6 mps 667 mmHg 16%
    19:00 +32°C° 0 mm 6 mps 667 mmHg 18%
    20:00 +30°C° 0 mm 5 mps 667 mmHg 21%
    21:00 +28°C° 0 mm 5 mps 668 mmHg 23%
    22:00 +27°C° 0 mm 4 mps 667 mmHg 25%
    23:00 +26°C° 0 mm 3 mps 667 mmHg 28%

    Day after tomorrow, 27 June, Wednesday

    Time Temperature Precipitation Wind Pressure Humidity
    00:00 +26°C° 0 mm 2 mps 667 mmHg 30%
    01:00 +25°C° 0 mm 2 mps 667 mmHg 32%
    02:00 +24°C° 0 mm 1 mps 666 mmHg 34%
    03:00 +21°C° 0 mm 0 mps 666 mmHg 36%
    04:00 +24°C° 0 mm 1 mps 666 mmHg 35%
    05:00 +24°C° 0 mm 1 mps 667 mmHg 34%
    06:00 +25°C° 0 mm 1 mps 667 mmHg 32%
    07:00 +26°C° 0 mm 1 mps 667 mmHg 30%
    08:00 +27°C° 0 mm 2 mps 668 mmHg 27%
    09:00 +28°C° 0 mm 2 mps 668 mmHg 25%
    10:00 +30°C° 0 mm 2 mps 668 mmHg 23%
    11:00 +31°C° 0 mm 2 mps 668 mmHg 20%
    12:00 +32°C° 0 mm 2 mps 668 mmHg 18%
    13:00 +34°C° 0 mm 3 mps 668 mmHg 17%
    14:00 +34°C° 0 mm 3 mps 667 mmHg 16%
    15:00 +35°C° 0 mm 3 mps 667 mmHg 15%
    16:00 +35°C° 0 mm 3 mps 667 mmHg 15%
    17:00 +34°C° 0 mm 4 mps 667 mmHg 16%
    18:00 +34°C° 0 mm 4 mps 667 mmHg 16%
    19:00 +33°C° 0 mm 4 mps 667 mmHg 18%
    20:00 +32°C° 0 mm 4 mps 667 mmHg 20%
    21:00 +30°C° 0 mm 4 mps 667 mmHg 23%
    22:00 +29°C° 0 mm 4 mps 666 mmHg 24%
    23:00 +28°C° 0 mm 4 mps 666 mmHg 26%

    28 June, Thursday

    Time Temperature Precipitation Wind Pressure Humidity
    00:00 +28°C° 0 mm 4 mps 666 mmHg 28%
    01:00 +27°C° 0 mm 3 mps 666 mmHg 29%
    02:00 +26°C° 0 mm 3 mps 665 mmHg 29%
    03:00 +26°C° 0 mm 2 mps 665 mmHg 30%
    04:00 +26°C° 0 mm 2 mps 665 mmHg 29%
    05:00 +26°C° 0 mm 2 mps 665 mmHg 28%
    06:00 +27°C° 0 mm 3 mps 665 mmHg 27%
    07:00 +28°C° 0 mm 3 mps 666 mmHg 24%
    08:00 +30°C° 0 mm 4 mps 666 mmHg 21%
    09:00 +32°C° 0 mm 5 mps 666 mmHg 18%
    10:00 +33°C° 0 mm 5 mps 666 mmHg 17%
    11:00 +35°C° 0 mm 5 mps 666 mmHg 16%
    12:00 +36°C° 0 mm 5 mps 666 mmHg 14%
    13:00 +37°C° 0 mm 5 mps 666 mmHg 13%
    14:00 +37°C° 0 mm 5 mps 665 mmHg 12%
    15:00 +39°C° 0 mm 5 mps 665 mmHg 11%
    16:00 +39°C° 0 mm 5 mps 665 mmHg 11%
    17:00 +39°C° 0 mm 6 mps 665 mmHg 11%
    18:00 +39°C° 0 mm 6 mps 664 mmHg 10%
    19:00 +38°C° 0 mm 6 mps 664 mmHg 11%
    20:00 +36°C° 0 mm 6 mps 664 mmHg 12%
    21:00 +35°C° 0 mm 6 mps 664 mmHg 13%
    22:00 +34°C° 0 mm 7 mps 664 mmHg 14%
    23:00 +33°C° 0 mm 7 mps 664 mmHg 16%

    29 June, Friday

    Time Temperature Precipitation Wind Pressure Humidity
    00:00 +32°C° 0 mm 8 mps 663 mmHg 17%
    01:00 +32°C° 0 mm 8 mps 663 mmHg 18%
    02:00 +31°C° 0 mm 8 mps 663 mmHg 19%
    03:00 +29°C° 0 mm 8 mps 662 mmHg 19%
    04:00 +29°C° 0 mm 8 mps 663 mmHg 19%
    05:00 +29°C° 0 mm 8 mps 663 mmHg 19%
    06:00 +29°C° 0 mm 8 mps 663 mmHg 18%
    07:00 +32°C° 0 mm 10 mps 664 mmHg 16%
    08:00 +34°C° 0 mm 11 mps 664 mmHg 13%
    09:00 +37°C° 0 mm 13 mps 665 mmHg 11%
    10:00 +39°C° 0 mm 12 mps 665 mmHg 10%
    11:00 +41°C° 0 mm 12 mps 665 mmHg 8%
    12:00 +42°C° 0 mm 12 mps 665 mmHg 7%
    13:00 +43°C° 0 mm 12 mps 664 mmHg 7%
    14:00 +43°C° 0 mm 11 mps 664 mmHg 6%
    15:00 +43°C° 0 mm 11 mps 664 mmHg 6%
    16:00 +43°C° 0 mm 10 mps 664 mmHg 6%
    17:00 +42°C° 0 mm 10 mps 664 mmHg 6%
    18:00 +42°C° 0 mm 9 mps 664 mmHg 6%
    19:00 +39°C° 0 mm 8 mps 664 mmHg 7%
    20:00 +38°C° 0 mm 7 mps 664 mmHg 8%
    21:00 +36°C° 0 mm 5 mps 664 mmHg 9%
    22:00 +35°C° 0 mm 5 mps 664 mmHg 10%
    23:00 +34°C° 0 mm 4 mps 664 mmHg 11%

    30 June, Saturday

    Time Temperature Precipitation Wind Pressure Humidity
    00:00 +33°C° 0 mm 3 mps 664 mmHg 12%
    01:00 +31°C° 0 mm 3 mps 664 mmHg 13%
    02:00 +32°C° 0 mm 4 mps 664 mmHg 13%
    03:00 +30°C° 0 mm 5 mps 664 mmHg 14%
    04:00 +30°C° 0 mm 5 mps 664 mmHg 14%
    05:00 +30°C° 0 mm 4 mps 664 mmHg 13%
    06:00 +30°C° 0 mm 4 mps 665 mmHg 13%
    07:00 +34°C° 0 mm 6 mps 665 mmHg 11%
    08:00 +36°C° 0 mm 7 mps 666 mmHg 9%
    09:00 +39°C° 0 mm 9 mps 667 mmHg 8%
    10:00 +40°C° 0 mm 10 mps 667 mmHg 7%
    11:00 +42°C° 0 mm 10 mps 667 mmHg 6%
    12:00 +43°C° 0 mm 10 mps 667 mmHg 6%
    13:00 +44°C° 0 mm 10 mps 666 mmHg 5%
    14:00 +44°C° 0 mm 10 mps 666 mmHg 5%
    15:00 +44°C° 0 mm 10 mps 666 mmHg 5%
    16:00 +44°C° 0 mm 9 mps 666 mmHg 5%
    17:00 +43°C° 0 mm 8 mps 666 mmHg 5%
    18:00 +43°C° 0 mm 7 mps 666 mmHg 5%
    19:00 +40°C° 0 mm 6 mps 666 mmHg 5%
    20:00 +37°C° 0 mm 5 mps 666 mmHg 6%
    21:00 +36°C° 0 mm 3 mps 667 mmHg 7%
    22:00 +35°C° 0 mm 3 mps 667 mmHg 8%
    23:00 +34°C° 0 mm 3 mps 666 mmHg 10%
    Show more